Weather History for Flagstaff, AZ

Change the Weather History Date:

Saturday, January 25, 2014

  Actual Average Record
Temperature  
Mean Temperature 41 °F 30 °F  
Max Temperature 56 °F 43 °F 61 °F (1975)
Min Temperature 25 °F 18 °F -17 °F (1937)
Degree Days  
Heating Degree Days 24 35  
Month to date heating degree days 746 881  
Since 1 July heating degree days 3659 3709  
Cooling Degree Days 0 0  
Month to date cooling degree days 0 0  
Year to date cooling degree days 0 0  
Moisture  
Dew Point 14 °F    
Average Humidity 42    
Maximum Humidity 68    
Minimum Humidity 16    
Precipitation  
Precipitation 0.00 in 0.06 in 1.70 in (1901)
Month to date precipitation 0.00 1.67  
Year to date precipitation 0.00 1.67  
Snow  
Snow 0.00 in 0.80 in 16.00 in (1923)
Month to date snowfall 0.0 18.3  
Since 1 July snowfall 29.9 47.4  
Snow Depth 0.00 in    
Sea Level Pressure  
Sea Level Pressure 30.23 in    
Wind  
Wind Speed 3 mph (WSW)    
Max Wind Speed 13 mph    
Max Gust Speed 20 mph    
Visibility 10 miles    
Events      
T = Trace of Precipitation, MM = Missing Value Source: NWS Daily Summary

Daily Weather History Graph

Daily Weather History Graph

Search for Another Location

Airport:

Trip Planner

Search our weather history database for the weather conditions in past years. The results will help you decide how hot, cold, wet, or windy it might be!

Date:

Astronomy

Jan. 25, 2014 Rise Set
Actual Time 7:30 AM MST 5:48 PM MST
Civil Twilight 7:03 AM MST 6:15 PM MST
Nautical Twilight 6:32 AM MST 6:45 PM MST
Astronomical Twilight 6:02 AM MST 7:15 PM MST
Moon 2:07 AM MST (1/25) 12:51 PM MST (1/25)
Length of Visible Light 11h 11m
Length of Day
10h 17m
Waning Crescent, 33% of the Moon is Illuminated
Jan 25
Waning Crescent
Jan 30
New
Feb 6
First Quarter
Feb 14
Full
Feb 22
Last Quarter

Hourly Weather History & Observations

Time (MST) Temp. Windchill Dew Point Humidity Pressure Visibility Wind Dir Wind Speed Gust Speed Precip Events Conditions
12:57 AM 30.9 °F 27.5 °F 14.0 °F 50% 30.35 in 10.0 mi NNE 3.5 mph - N/A   Mostly Cloudy
1:57 AM 30.0 °F - 16.0 °F 56% 30.35 in 10.0 mi Calm Calm - N/A   Partly Cloudy
2:57 AM 28.9 °F - 16.0 °F 58% 30.34 in 10.0 mi Calm Calm - N/A   Overcast
3:57 AM 28.9 °F - 17.1 °F 61% 30.32 in 10.0 mi Calm Calm - N/A   Overcast
4:57 AM 28.0 °F - 16.0 °F 61% 30.32 in 10.0 mi Calm Calm - N/A   Overcast
5:57 AM 28.0 °F - 17.1 °F 63% 30.32 in 10.0 mi Calm Calm - N/A   Overcast
6:57 AM 28.0 °F - 17.1 °F 63% 30.33 in 10.0 mi Calm Calm - N/A   Overcast
7:57 AM 26.1 °F - 17.1 °F 69% 30.35 in 10.0 mi Calm Calm - N/A   Clear
8:57 AM 32.0 °F - 18.0 °F 56% 30.34 in 10.0 mi Calm Calm - N/A   Clear
9:57 AM 43.0 °F 40.3 °F 5.0 °F 21% 30.28 in 10.0 mi ENE 4.6 mph - N/A   Clear
10:57 AM 52.0 °F - 7.0 °F 16% 30.24 in 10.0 mi Calm Calm - N/A   Clear
11:57 AM 52.0 °F - 7.0 °F 16% 30.19 in 10.0 mi WSW 4.6 mph - N/A   Clear
12:57 PM 55.0 °F - 12.0 °F 18% 30.15 in 10.0 mi Variable 4.6 mph - N/A   Clear
1:57 PM 55.0 °F - 12.9 °F 19% 30.12 in 10.0 mi Variable 4.6 mph - N/A   Mostly Cloudy
2:57 PM 55.0 °F - 14.0 °F 20% 30.12 in 10.0 mi NNW 6.9 mph - N/A   Overcast
3:57 PM 54.0 °F - 14.0 °F 21% 30.12 in 10.0 mi South 12.7 mph - N/A   Partly Cloudy
4:57 PM 52.0 °F - 12.0 °F 20% 30.13 in 10.0 mi WSW 8.1 mph - N/A   Clear
5:57 PM 45.0 °F - 14.0 °F 29% 30.17 in 10.0 mi Calm Calm - N/A   Clear
6:57 PM 36.0 °F - 15.1 °F 43% 30.22 in 10.0 mi Calm Calm - N/A   Clear
7:57 PM 33.1 °F 30.0 °F 15.1 °F 48% 30.24 in 10.0 mi SW 3.5 mph - N/A   Clear
8:57 PM 30.9 °F 27.5 °F 15.1 °F 52% 30.21 in 10.0 mi West 3.5 mph - N/A   Clear
9:57 PM 28.9 °F - 15.1 °F 56% 30.16 in 10.0 mi Calm Calm - N/A   Clear
10:57 PM 30.0 °F 26.5 °F 14.0 °F 51% 30.11 in 10.0 mi SW 3.5 mph - N/A   Clear
11:57 PM 30.0 °F 25.2 °F 14.0 °F 51% 30.10 in 10.0 mi WSW 4.6 mph - N/A   Clear